INTELSAT 33E DEB, 61992

Orbit data source: Space-Track

INTELSAT 33E DEB, 61992 is space debris in GEO originally from a launch on Wed, 24 Aug 2016 UTC launched from the French Guiana (FRGUI). Debris objects in space refer to the collection of defunct objects orbiting the Earth. Examples of debris include non-operational satellites, rocket bodies, and fragments generated from explosions, collisions, or faulty payload assembly.

Not visible in the next 10 days
Identifier
61992, 2016-053J
Orbit
GEO
Country
Flag of UnknownUnknown / ITSO
Related business
Manufacturer
Boeing/ES
Mission
Spacecraft
Bus & Motor
Unknown
Mass
Unknown
Launch date (UTC)
2016-08-24 (9 years ago)
Launch vehicle
Unknown
Launch site
French Guiana (FRGUI)
Object type
Payload
Rocket body
Debris
Shape & HBR
Unknown
Radar Cross Section
RCS unknown

Expand to show TLE details & history
Last TLE update: 1 day ago

TLE from 1 day ago
0 INTELSAT 33E DEB
1 61992U 16053J   25258.11042229 -.00000177  00000-0  00000-0 0  9991
2 61992   0.8500  88.0180 0033919 300.8241 331.3477  1.00793742  3330
Epoch: 2025-09-15T02:39Z
TLE epoch observation values (Epoch: 2025-09-15T02:39:00.485Z)
Latitude
-0.85668°
Longitude
-34.07167°
Altitude
35,515.201 km
Speed
3.089 km/s
True Right ascension
00h 00m 00s
True Declination
0° 51' 21"
Sunlit
Object was in full shadow at epoch
Visualization orbit readout
Latitude
Unknown
Longitude
Unknown
Altitude
Unknown
Speed
Unknown
Apparent Right ascension
Unknown
Apparent Declination
Unknown
Sunlit
N/A
Visualization observer readout
Local Sidereal Time
23:23:36
Azimuth
Unknown
Elevation
Unknown
Doppler factor
Unknown
Orbital elements
Apogee altitude
35,784.505 km
Perigee altitude
35,499.449 km
Semi-major axis
42,020.114 km
Eccentricity
0.00339
Inclination
0.85°
RAAN
88.018°
Arg. of periapsis
300.8241°
True anomaly
331.16063°
Mean anomaly
331.3477°
Eccentric anomaly
331.25424°
Mean motion
0.25197 °/min
Orbital period
1,428.71 mins
BSTAR
0
Loading maneuver chart data...
Computing Atmospheric mass density...
Loading historical data...
Loading historical data...
Loading historical data...
Loading historical data...
Loading historical data...
Loading historical data...
Loading historical data...

Documentation

Showing up to 5 results
|